| time (UTC) | temp C | wind direction | speed KPH | gust KPH | rain 1hr cm | rain 24hr cm | rain mn cm | humidity % | barometer mb |
| 20260505124524 | 10 | 347 | 22.5 | 37.0 | 0.00 | 0.00 | 0.00 | 55 | 1002.3 |
| 20260505123019 | 10 | 347 | 22.5 | 33.8 | 0.00 | 0.00 | 0.00 | 55 | 1002.1 |
| 20260505121515 | 10 | 360 | 22.5 | 37.0 | 0.00 | 0.00 | 0.00 | 54 | 1001.8 |
| 20260505120014 | 11 | 348 | 14.5 | 27.4 | 0.00 | 0.00 | 0.00 | 55 | 1001.4 |
| 20260505114510 | 11 | 333 | 27.4 | 37.0 | 0.00 | 0.00 | 0.00 | 55 | 1001.2 |
| 20260505113007 | 11 | 342 | 12.9 | 30.6 | 0.00 | 0.00 | 0.00 | 55 | 1001.3 |
| 20260505111511 | 11 | 355 | 22.5 | 33.8 | 0.00 | 0.00 | 0.00 | 55 | 1001.1 |
| 20260505101550 | 13 | 334 | 30.6 | 41.8 | 0.00 | 0.00 | 0.00 | 56 | 1000.4 |
| 20260505100048 | 14 | 300 | 30.6 | 46.7 | 0.00 | 0.00 | 0.00 | 52 | 1000.4 |
| 20260505094542 | 16 | 315 | 27.4 | 45.1 | 0.00 | 0.00 | 0.00 | 43 | 999.9 |
| 20260505093037 | 17 | 324 | 22.5 | 41.8 | 0.00 | 0.00 | 0.00 | 30 | 999.3 |
| 20260505091532 | 19 | 296 | 25.7 | 45.1 | 0.00 | 0.00 | 0.00 | 25 | 998.7 |
| 20260505090031 | 19 | 299 | 17.7 | 27.4 | 0.00 | 0.00 | 0.00 | 26 | 998.4 |
| 20260505084527 | 19 | 269 | 20.9 | 29.0 | 0.00 | 0.00 | 0.00 | 26 | 998.0 |
| 20260505083022 | 20 | 360 | 17.7 | 25.7 | 0.00 | 0.00 | 0.00 | 25 | 997.5 |
| 20260505081529 | 20 | 249 | 22.5 | 32.2 | 0.00 | 0.00 | 0.00 | 25 | 997.4 |
| 20260505080020 | 20 | 243 | 20.9 | 32.2 | 0.00 | 0.00 | 0.00 | 25 | 997.6 |
| 20260505074516 | 21 | 246 | 22.5 | 33.8 | 0.00 | 0.00 | 0.00 | 25 | 997.9 |
| 20260505073015 | 20 | 257 | 24.1 | 38.6 | 0.00 | 0.00 | 0.00 | 25 | 997.8 |
| 20260505071531 | 21 | 238 | 25.7 | 35.4 | 0.00 | 0.00 | 0.00 | 24 | 997.9 |
| 20260505070014 | 21 | 250 | 25.7 | 40.2 | 0.00 | 0.00 | 0.00 | 24 | 997.8 |
| 20260505064520 | 20 | 247 | 25.7 | 38.6 | 0.00 | 0.00 | 0.00 | 24 | 997.7 |
| 20260505063013 | 21 | 215 | 25.7 | 35.4 | 0.00 | 0.00 | 0.00 | 24 | 997.8 |
| 20260505061510 | 21 | 219 | 25.7 | 37.0 | 0.00 | 0.00 | 0.00 | 24 | 998.0 |
| 20260505060004 | 21 | 219 | 27.4 | 38.6 | 0.00 | 0.00 | 0.00 | 23 | 997.9 |
| 20260505054502 | 21 | 219 | 25.7 | 38.6 | 0.00 | 0.00 | 0.00 | 23 | 997.9 |
| 20260505053106 | 21 | 242 | 29.0 | 40.2 | 0.00 | 0.00 | 0.00 | 23 | 998.1 |
| 20260505051558 | 21 | 242 | 29.0 | 40.2 | 0.00 | 0.00 | 0.00 | 23 | 998.1 |
| 20260505041554 | 22 | 234 | 33.8 | 46.7 | 0.00 | 0.00 | 0.00 | 23 | 998.1 |
| 20260505040052 | 22 | 234 | 33.8 | 48.3 | 0.00 | 0.00 | 0.00 | 22 | 998.2 |
| 20260505034552 | 22 | 236 | 27.4 | 38.6 | 0.00 | 0.00 | 0.00 | 22 | 998.3 |
| 20260505033052 | 23 | 360 | 32.2 | 43.5 | 0.00 | 0.00 | 0.00 | 20 | 998.2 |
| 20260505031550 | 22 | 238 | 29.0 | 41.8 | 0.00 | 0.00 | 0.00 | 19 | 998.2 |
| 20260505030050 | 23 | 237 | 30.6 | 41.8 | 0.00 | 0.00 | 0.00 | 18 | 997.9 |
| 20260505024549 | 23 | 235 | 27.4 | 37.0 | 0.00 | 0.00 | 0.00 | 17 | 997.9 |
| 20260505023055 | 23 | 239 | 24.1 | 35.4 | 0.00 | 0.00 | 0.00 | 16 | 997.8 |
| 20260505021548 | 24 | 213 | 25.7 | 35.4 | 0.00 | 0.00 | 0.00 | 16 | 997.7 |
| 20260505020047 | 25 | 360 | 25.7 | 38.6 | 0.00 | 0.00 | 0.00 | 15 | 997.6 |
| 20260505014547 | 25 | 236 | 25.7 | 35.4 | 0.00 | 0.00 | 0.00 | 15 | 997.6 |
| 20260505013046 | 25 | 229 | 24.1 | 37.0 | 0.00 | 0.00 | 0.00 | 14 | 997.4 |
| 20260505011551 | 26 | 222 | 29.0 | 41.8 | 0.00 | 0.00 | 0.00 | 14 | 997.4 |
| 20260505010048 | 26 | 241 | 30.6 | 40.2 | 0.00 | 0.00 | 0.00 | 14 | 997.3 |
| 20260505004544 | 27 | 220 | 30.6 | 48.3 | 0.00 | 0.00 | 0.00 | 13 | 997.4 |
| 20260505003043 | 27 | 270 | 19.3 | 30.6 | 0.00 | 0.00 | 0.00 | 15 | 997.5 |
| 20260505001543 | 27 | 270 | 24.1 | 43.5 | 0.00 | 0.00 | 0.00 | 16 | 997.6 |
| 20260505000041 | 28 | 248 | 25.7 | 45.1 | 0.00 | 0.00 | 0.00 | 13 | 997.4 |
| 20260504234539 | 28 | 360 | 22.5 | 35.4 | 0.00 | 0.00 | 0.00 | 15 | 997.8 |
| 20260504233042 | 28 | 236 | 22.5 | 33.8 | 0.00 | 0.00 | 0.00 | 20 | 997.7 |
| 20260504231541 | 28 | 360 | 17.7 | 40.2 | 0.00 | 0.00 | 0.00 | 20 | 997.7 |
| 20260504230037 | 28 | 236 | 33.8 | 43.5 | 0.00 | 0.00 | 0.00 | 19 | 997.8 |
| 20260504224535 | 28 | 241 | 20.9 | 38.6 | 0.00 | 0.00 | 0.00 | 19 | 997.9 |
| 20260504223034 | 30 | 277 | 30.6 | 45.1 | 0.00 | 0.00 | 0.00 | 17 | 998.2 |
| 20260504221533 | 30 | 240 | 22.5 | 46.7 | 0.00 | 0.00 | 0.00 | 16 | 998.4 |
| 20260504220031 | 30 | 281 | 33.8 | 46.7 | 0.00 | 0.00 | 0.00 | 15 | 998.6 |
| 20260504214530 | 30 | 248 | 30.6 | 53.1 | 0.00 | 0.00 | 0.00 | 13 | 998.8 |
| 20260504213027 | 30 | 233 | 35.4 | 49.9 | 0.00 | 0.00 | 0.00 | 16 | 999.0 |
| 20260504211524 | 30 | 360 | 29.0 | 46.7 | 0.00 | 0.00 | 0.00 | 17 | 999.2 |
| 20260504210024 | 30 | 248 | 38.6 | 49.9 | 0.00 | 0.00 | 0.00 | 17 | 999.6 |
| 20260504204520 | 29 | 360 | 27.4 | 48.3 | 0.00 | 0.00 | 0.00 | 18 | 999.9 |
| 20260504203017 | 30 | 260 | 24.1 | 46.7 | 0.00 | 0.00 | 0.00 | 17 | 1000.0 |
| 20260504201514 | 29 | 271 | 24.1 | 46.7 | 0.00 | 0.00 | 0.00 | 19 | 1000.2 |
| 20260504200023 | 29 | 261 | 27.4 | 48.3 | 0.00 | 0.00 | 0.00 | 19 | 1000.4 |
| 20260504194510 | 29 | 271 | 19.3 | 35.4 | 0.00 | 0.00 | 0.00 | 20 | 1000.7 |
| 20260504193007 | 29 | 275 | 20.9 | 38.6 | 0.00 | 0.00 | 0.00 | 19 | 1001.0 |
| 20260504191517 | 29 | 274 | 25.7 | 38.6 | 0.00 | 0.00 | 0.00 | 19 | 1001.3 |
| 20260504190011 | 29 | 236 | 24.1 | 38.6 | 0.00 | 0.00 | 0.00 | 19 | 1001.4 |
| 20260504184511 | 29 | 267 | 16.1 | 35.4 | 0.00 | 0.00 | 0.00 | 19 | 1001.7 |
| 20260504183109 | 29 | 290 | 17.7 | 30.6 | 0.00 | 0.00 | 0.00 | 20 | 1001.9 |
| 20260504181558 | 29 | 262 | 24.1 | 41.8 | 0.00 | 0.00 | 0.00 | 20 | 1002.4 |
| 20260504180056 | 28 | 261 | 20.9 | 38.6 | 0.00 | 0.00 | 0.00 | 19 | 1002.6 |
| 20260504174600 | 29 | 281 | 22.5 | 35.4 | 0.00 | 0.00 | 0.00 | 20 | 1002.7 |
| 20260504173056 | 28 | 311 | 25.7 | 43.5 | 0.00 | 0.00 | 0.00 | 21 | 1003.1 |
| 20260504171549 | 28 | 275 | 27.4 | 46.7 | 0.00 | 0.00 | 0.00 | 21 | 1003.4 |